Temperature
16 15 15 14 13 13 13 13 12 12 12 12 12 12 11 11 11 11 11 11 11 11 11 11 11 11 11 11 11 12 12 12 12 12 13 14 14 14 14 14 14 14 15
16 15 14 14 13 13 13 13 12 12 12 12 12 11 11 11 11 11 11 11 11 11 11 11 11 11 11 11 11 11 11 11 12 12 12 13 13 13 13 14 14 14 14
16 15 15 14 13 13 13 12 12 12 12 12 11 11 11 11 11 11 11 11 11 10 10 10 11 11 11 11 11 11 11 11 11 11 12 12 12 13 13 13 13 13 14
16 15 15 14 13 13 13 12 12 12 12 12 11 11 11 11 11 11 11 10 10 10 10 10 10 10 10 10 10 10 11 11 11 11 11 12 12 12 13 13 13 13 13
16 15 15 14 14 13 13 12 12 12 12 12 11 11 11 11 11 11 11 10 10 10 10 10 10 10 10 10 10 10 10 10 10 10 11 11 12 12 12 13 13 13 13
15 15 15 14 14 13 13 13 12 12 12 12 11 11 11 11 11 11 10 10 10 10 10 10 9 9 10 10 10 10 10 10 10 10 10 10 11 11 12 12 12 12 12
15 15 15 14 14 13 13 13 12 12 12 12 12 11 11 11 11 10 10 10 10 10 9 9 9 9 9 10 10 9 10 10 10 10 10 10 10 11 11 11 11 12 12
16 15 15 14 14 14 13 13 12 12 12 12 12 11 11 11 10 10 10 10 10 10 9 9 9 9 9 9 9 9 9 9 9 9 9 10 10 10 10 10 11 11 12
16 16 15 15 14 14 13 13 13 12 12 12 11 11 11 11 11 10 10 9 9 9 9 9 9 9 9 9 9 9 9 9 9 9 9 9 10 10 10 10 10 10 11
16 16 15 15 15 14 14 13 13 12 12 12 11 11 11 11 11 10 10 10 9 9 9 9 9 9 9 9 8 8 8 8 8 8 9 9 9 9 10 10 10 10 10
16 16 15 15 15 14 14 13 13 12 12 12 12 12 11 11 11 11 10 10 9 9 9 9 9 9 9 8 8 8 8 8 8 8 8 9 9 9 10 10 10 10 10
16 16 15 15 15 14 13 13 13 12 12 12 12 12 12 12 11 11 10 10 9 9 9 9 8 8 8 8 8 8 8 8 7 8 8 8 8 9 9 10 10 10 11
16 16 15 15 15 14 13 13 12 12 12 12 12 12 12 12 11 11 10 10 9 9 9 8 8 8 8 8 8 8 8 7 7 7 7 8 8 9 9 10 10 10 10
16 15 15 15 14 14 13 13 13 12 12 12 12 12 12 11 11 11 10 9 9 8 8 8 8 8 8 8 8 8 8 8 7 7 7 8 8 9 9 9 10 10 10
15 15 15 14 14 14 14 13 13 13 13 13 12 12 11 11 11 10 10 9 9 8 8 8 8 8 8 8 8 8 8 8 7 7 7 8 8 8 9 9 9 10 10
15 15 14 14 14 14 14 14 14 14 13 13 13 12 12 11 11 10 10 10 9 9 8 8 8 8 8 8 8 8 8 8 8 8 8 8 8 8 9 9 9 10 10
14 14 14 14 14 14 14 14 14 14 14 13 13 13 12 12 11 10 10 10 9 9 9 9 8 8 8 8 8 8 8 8 8 8 8 8 8 8 9 9 9 9 10
14 13 13 13 13 13 13 13 13 13 13 13 13 13 12 12 11 11 10 10 9 9 9 9 9 9 9 9 9 9 8 8 8 8 8 8 8 8 9 9 9 10 10
13 13 13 13 13 13 13 13 13 13 13 13 13 13 12 12 11 11 10 10 10 9 9 9 9 9 9 9 9 9 9 9 8 8 8 8 9 9 9 9 9 10 10
12 12 12 12 13 13 13 13 13 13 13 13 13 12 12 11 11 11 10 10 10 9 9 9 9 9 9 9 9 9 9 9 9 8 8 8 9 9 9 9 9 10 10
12 12 12 12 12 13 13 13 13 13 13 13 12 12 12 11 11 11 10 10 10 9 9 9 9 9 9 9 9 9 9 9 9 9 9 9 9 9 9 9 9 10 10
11 11 12 12 12 12 13 13 13 13 12 12 12 12 11 11 11 10 10 10 10 10 9 9 9 9 9 9 9 9 9 9 9 9 9 9 9 9 9 9 9 10 10
10 11 11 11 12 12 12 12 12 12 12 12 12 11 11 11 10 10 10 10 10 9 9 9 9 9 9 9 9 8 8 8 9 9 9 9 9 9 9 9 9 10 10
10 10 10 11 11 11 12 12 12 12 12 11 11 11 10 10 10 10 10 10 9 9 9 9 9 8 8 8 8 8 8 8 8 8 9 9 9 9 9 9 9 10 10
9 9 10 10 10 11 11 11 11 11 11 11 11 10 10 10 10 10 10 9 9 9 9 9 8 8 8 8 8 8 8 8 8 8 8 9 9 9 9 9 9 10 10
9 9 9 9 10 10 10 10 10 10 10 10 10 10 10 10 10 9 9 9 9 9 8 8 8 8 8 8 8 8 8 8 8 8 8 8 9 9 9 9 9 9 9
Wind_Speed
5 4 1 2 3 3 4 5 5 4 5 6 7 7 7 7 7 6 7 8 8 8 8 8 8 8 6 6 6 6 6 6 8 7 6 5 4 4 3 5 7 8 10
6 4 4 3 4 4 5 5 4 5 5 6 6 7 8 8 7 7 8 8 8 8 8 8 8 8 8 7 7 7 7 7 7 9 8 7 7 6 5 5 5 8 7
5 5 5 4 4 4 5 5 5 5 6 6 7 7 7 8 8 7 7 8 8 8 8 8 8 8 9 7 7 7 7 8 7 7 8 6 6 5 5 6 6 5 6
4 4 4 4 4 4 5 5 5 5 6 7 7 7 7 8 8 7 7 8 8 8 8 8 9 9 9 8 8 8 8 8 7 7 7 7 7 7 5 5 5 5 5
3 3 4 4 4 4 5 5 5 6 8 7 7 7 7 8 8 5 5 8 7 8 8 9 10 11 11 9 10 7 7 6 6 6 7 7 7 6 5 5 6 4 5
5 5 4 3 4 5 5 6 6 6 6 6 7 7 8 9 3 2 4 7 8 9 9 9 10 12 13 15 16 15 12 10 8 7 7 8 7 6 5 5 5 4 4
6 5 5 5 5 5 6 6 6 6 6 7 7 7 8 8 8 7 8 6 9 9 10 10 12 13 11 8 10 13 14 17 16 11 11 10 9 8 6 6 6 6 5
7 7 6 5 5 5 5 6 6 6 6 7 7 8 8 9 8 9 10 8 9 10 11 11 11 11 12 9 9 9 9 10 12 12 12 12 12 9 8 7 7 6 5
8 7 6 5 5 5 5 6 6 6 6 7 8 8 8 8 8 9 10 7 9 11 11 11 10 10 11 10 8 9 9 9 12 15 15 15 15 14 9 5 6 5 5
7 6 5 5 5 6 6 6 7 6 7 8 8 8 8 9 9 11 11 7 9 9 9 9 11 11 9 8 8 8 10 9 10 11 9 11 12 13 14 10 8 7 5
6 5 5 5 6 7 8 7 7 7 8 9 9 9 10 11 10 12 14 8 8 9 9 8 6 5 7 8 8 8 10 9 8 9 9 9 9 9 10 11 10 9 8
5 5 5 5 7 8 6 6 7 8 9 10 10 11 9 8 8 10 15 15 12 9 9 9 5 4 6 8 8 11 12 9 9 9 10 9 8 9 9 10 11 11 9
5 6 5 6 6 7 7 9 8 9 10 9 8 7 6 4 4 9 12 15 15 10 10 12 12 13 12 11 15 16 12 9 9 10 11 10 9 8 8 8 8 9 9
6 5 6 7 8 9 9 9 9 8 8 7 6 6 6 5 4 2 3 6 10 11 10 11 14 17 15 14 12 10 9 10 10 10 9 9 8 7 7 7 7 7 6
6 6 7 9 10 9 9 9 10 9 9 8 7 7 7 7 4 2 4 6 6 5 6 8 10 10 8 8 9 9 8 8 10 10 10 9 8 7 7 6 7 7 7
6 7 8 8 8 9 8 9 14 15 15 16 16 13 9 10 9 9 9 9 9 6 5 9 10 10 10 9 8 7 8 9 9 9 9 9 8 7 7 7 7 8 8
8 8 8 9 9 9 8 8 8 9 14 16 17 17 17 16 14 13 12 10 10 7 6 10 11 10 10 9 8 8 8 8 8 8 8 8 8 7 7 7 7 7 8
9 10 10 9 10 10 10 9 9 9 7 7 11 17 18 18 18 17 12 6 8 8 9 10 10 9 9 9 8 7 7 7 7 7 8 8 8 7 7 7 7 8 8
10 10 9 11 10 10 10 10 10 10 8 7 7 7 13 15 16 15 9 7 10 10 9 9 8 8 8 8 7 7 7 6 7 6 7 7 7 7 7 7 8 10 9
10 14 14 12 12 11 11 11 10 8 7 7 6 6 3 5 6 7 7 9 10 10 9 9 8 7 7 7 7 6 7 7 6 6 6 6 6 7 7 8 8 7 7
12 13 14 13 12 12 11 11 10 9 8 6 6 5 4 5 7 7 6 6 7 8 8 7 6 6 6 6 6 6 7 6 6 5 5 6 6 6 6 6 7 7 7
12 13 13 13 11 10 10 9 9 9 8 8 7 5 6 6 6 7 6 5 5 6 6 6 6 5 5 4 5 5 5 5 5 5 5 5 5 6 6 6 7 7 7
13 15 14 13 11 11 11 10 10 9 8 6 5 5 4 4 5 6 6 5 5 5 5 4 5 5 4 4 4 4 4 4 4 4 4 5 5 6 6 6 7 7 8
15 16 15 14 12 11 11 10 9 8 6 6 5 4 5 5 5 5 5 4 4 5 4 4 4 5 5 4 3 2 2 3 4 3 4 4 4 4 5 5 6 7 7
16 15 15 14 13 11 10 9 8 7 5 5 4 5 5 4 4 3 3 3 4 4 5 4 3 4 5 5 3 2 3 4 4 5 4 3 4 5 5 6 5 5 6
15 15 14 13 12 10 10 10 8 6 4 4 4 4 4 4 4 3 3 3 3 3 3 3 5 5 5 4 4 3 3 3 4 5 5 4 4 4 5 5 6 6 7
Wind_Direction
208 203 241 260 271 277 270 270 276 282 292 290 286 287 288 286 281 274 273 272 274 274 276 273 268 264 264 272 279 276 270 269 276 281 285 286 272 269 247 238 246 245 243
195 188 203 226 246 262 273 279 285 282 280 282 285 288 288 288 288 284 283 284 280 279 277 276 276 274 266 259 262 269 271 269 264 269 276 278 265 253 242 237 252 258 245
187 186 201 216 236 249 266 273 278 281 281 283 286 286 287 289 287 283 280 279 279 279 279 278 276 273 272 266 261 262 268 273 270 268 273 275 272 260 253 242 240 250 255
189 200 212 222 240 255 265 269 272 276 278 276 277 280 284 285 283 280 281 280 280 280 279 277 275 270 267 268 267 259 261 264 272 272 270 270 267 259 247 242 243 232 239
198 227 232 231 240 250 257 262 267 271 279 282 288 288 285 282 281 291 290 290 296 297 291 283 277 275 270 263 265 264 272 273 274 274 272 273 271 270 263 253 251 240 233
200 231 239 236 249 254 258 257 261 265 274 279 282 285 285 289 302 290 281 297 295 290 287 284 283 275 265 250 247 249 250 256 261 267 272 270 274 283 286 282 273 258 252
199 222 234 235 247 255 268 275 277 280 283 282 280 280 281 283 268 248 244 268 281 280 279 280 282 282 293 284 263 251 249 248 243 249 261 266 273 278 285 286 281 270 260
204 217 226 232 245 253 259 266 269 275 278 279 279 279 279 280 264 244 238 252 271 272 270 269 269 272 278 280 284 277 266 257 245 240 243 250 256 262 266 266 270 271 262
211 215 224 232 246 256 262 266 270 272 274 274 277 275 274 273 256 239 229 261 269 272 271 271 269 268 265 258 261 268 271 270 267 255 239 239 240 244 245 257 261 255 255
216 216 222 227 240 253 261 263 267 268 271 275 276 276 276 276 260 234 219 252 271 278 280 274 269 265 262 247 251 262 268 271 277 284 273 258 249 242 232 231 240 244 246
213 214 220 226 235 244 247 248 252 261 268 272 275 274 269 263 252 231 219 236 260 277 286 291 294 293 259 247 248 257 263 275 282 278 275 265 253 244 236 227 223 227 230
212 222 228 231 249 260 253 254 254 258 265 267 267 268 264 254 242 231 219 223 241 263 275 282 290 292 271 258 252 254 260 267 268 266 263 258 250 243 236 230 220 217 221
220 230 238 245 247 254 260 262 259 254 258 264 271 278 282 275 246 232 223 227 234 244 265 278 286 278 269 259 250 249 251 250 251 254 254 252 249 244 242 232 227 223 217
226 235 243 247 249 247 245 253 259 261 263 266 275 284 292 291 283 244 226 240 241 247 261 275 274 265 256 255 262 249 236 238 242 249 252 252 249 245 242 231 225 213 208
231 240 249 254 255 252 249 246 249 251 254 256 265 271 279 283 280 214 265 286 294 310 310 289 282 277 266 253 247 243 240 233 235 241 248 250 247 242 238 227 220 210 204
243 248 256 260 261 261 258 258 244 239 243 233 233 243 257 258 260 252 254 258 263 269 277 274 275 275 273 271 265 258 247 240 238 237 239 242 242 239 236 227 215 210 206
255 262 269 272 273 276 273 272 274 258 241 237 236 238 240 251 259 261 263 269 267 240 247 262 266 268 270 270 266 263 257 247 237 234 236 239 237 233 230 225 214 210 208
263 267 268 271 270 270 272 271 271 273 271 260 240 233 236 241 249 255 258 269 270 240 245 256 262 265 269 270 268 265 261 256 242 231 232 235 233 227 224 222 214 209 205
281 278 275 275 275 274 273 272 270 269 268 271 275 245 226 234 243 250 237 241 260 269 268 263 262 266 269 269 266 261 258 252 244 233 232 231 228 225 224 220 214 209 203
281 274 275 279 278 275 272 272 273 271 270 271 272 277 250 232 251 248 226 234 247 259 268 275 276 273 271 270 267 258 257 252 245 236 234 232 227 226 226 221 213 204 202
298 293 281 275 272 271 269 268 271 271 270 269 269 265 249 266 276 276 268 248 250 260 267 274 275 276 275 271 267 261 257 251 243 237 234 231 229 227 222 219 212 203 201
307 300 297 292 284 278 274 270 269 271 273 277 281 266 222 243 271 284 286 285 283 274 275 280 283 279 275 279 277 272 269 265 251 238 235 230 224 225 220 215 209 201 200
308 302 299 294 291 289 285 277 270 269 269 267 270 278 260 253 268 272 278 285 286 285 286 285 284 287 290 284 282 283 286 286 282 259 233 228 225 222 217 214 211 206 199
311 304 300 297 292 290 290 286 275 269 267 267 271 271 269 258 264 276 284 288 293 295 293 292 291 295 300 302 304 320 330 327 316 303 285 254 239 228 211 211 211 208 202
309 306 303 300 296 293 292 289 285 281 270 263 269 269 270 274 275 283 299 303 311 314 320 327 318 315 314 323 341 12 18 10 359 330 304 284 265 247 224 216 211 206 201
308 307 307 304 303 302 297 291 287 288 281 282 282 277 283 294 306 322 321 320 322 321 322 329 333 333 337 356 25 33 23 358 348 330 305 281 266 253 238 225 213 206 202
Height
1523 1523 1524 1523 1523 1523 1522 1522 1521 1520 1519 1518 1517 1516 1514 1513 1512 1511 1510 1509 1508 1507 1506 1506 1505 1505 1504 1504 1505 1504 1504 1504 1503 1502 1503 1502 1502 1501 1500 1500 1500 1499 1499
1521 1521 1521 1520 1520 1519 1519 1519 1518 1517 1515 1514 1513 1512 1511 1510 1509 1507 1506 1505 1504 1503 1502 1501 1500 1500 1499 1499 1499 1499 1499 1499 1499 1497 1497 1497 1497 1496 1496 1495 1495 1494 1493
1518 1518 1518 1518 1517 1517 1516 1515 1514 1513 1512 1511 1510 1508 1507 1506 1504 1503 1502 1500 1499 1498 1497 1496 1495 1495 1494 1494 1493 1493 1493 1493 1493 1492 1491 1492 1492 1492 1491 1490 1490 1489 1489
1516 1516 1516 1515 1514 1514 1513 1512 1511 1510 1509 1507 1506 1505 1503 1502 1500 1499 1497 1496 1495 1493 1492 1491 1490 1489 1488 1488 1488 1487 1488 1487 1487 1487 1486 1486 1486 1487 1486 1486 1485 1484 1484
1513 1513 1513 1512 1512 1511 1510 1509 1508 1507 1506 1504 1503 1501 1499 1498 1496 1495 1493 1492 1490 1488 1486 1485 1484 1483 1483 1482 1482 1482 1482 1482 1481 1481 1481 1481 1481 1481 1481 1481 1480 1479 1479
1509 1510 1510 1509 1508 1508 1507 1506 1505 1503 1502 1501 1499 1497 1495 1494 1493 1490 1488 1486 1484 1482 1480 1478 1478 1477 1476 1476 1476 1475 1476 1476 1475 1475 1475 1475 1475 1476 1476 1476 1476 1475 1474
1506 1506 1506 1506 1505 1505 1504 1503 1501 1500 1498 1496 1494 1493 1491 1489 1487 1485 1483 1480 1478 1475 1473 1472 1471 1471 1471 1470 1469 1468 1468 1469 1469 1469 1468 1468 1469 1470 1471 1471 1471 1471 1470
1503 1503 1503 1502 1502 1501 1500 1499 1497 1496 1494 1492 1490 1488 1486 1484 1482 1480 1477 1475 1472 1470 1468 1466 1465 1464 1464 1464 1463 1462 1461 1461 1462 1462 1461 1461 1462 1464 1465 1466 1466 1466 1466
1499 1499 1499 1498 1498 1497 1495 1494 1493 1491 1489 1488 1486 1484 1482 1480 1478 1475 1472 1469 1467 1465 1463 1462 1461 1459 1458 1457 1456 1455 1454 1454 1454 1455 1455 1454 1455 1456 1458 1459 1460 1461 1460
1495 1495 1495 1494 1493 1492 1491 1490 1488 1486 1485 1483 1481 1479 1477 1475 1473 1470 1468 1465 1462 1460 1458 1457 1456 1454 1452 1451 1450 1449 1447 1447 1447 1447 1447 1447 1447 1448 1450 1452 1453 1455 1456
1490 1490 1490 1489 1488 1487 1486 1485 1483 1481 1480 1478 1476 1474 1472 1469 1467 1465 1462 1460 1458 1455 1453 1451 1450 1448 1446 1445 1444 1442 1441 1441 1440 1439 1438 1439 1439 1440 1442 1443 1445 1448 1450
1486 1485 1485 1484 1484 1483 1482 1480 1478 1477 1474 1473 1471 1469 1467 1464 1462 1459 1457 1455 1453 1450 1447 1446 1444 1442 1440 1438 1437 1436 1435 1434 1432 1431 1431 1431 1432 1433 1434 1436 1438 1441 1443
1481 1481 1480 1479 1479 1478 1477 1475 1473 1472 1470 1468 1467 1465 1462 1460 1458 1455 1452 1449 1447 1444 1442 1440 1438 1436 1434 1432 1430 1429 1428 1426 1425 1424 1424 1424 1425 1426 1428 1430 1432 1435 1437
1476 1475 1475 1474 1473 1472 1471 1470 1469 1467 1466 1464 1462 1459 1457 1455 1453 1449 1446 1444 1441 1438 1436 1433 1431 1429 1427 1425 1424 1422 1421 1419 1418 1418 1417 1418 1419 1421 1422 1424 1426 1428 1431
1471 1470 1469 1468 1467 1466 1465 1463 1462 1460 1459 1458 1455 1453 1451 1449 1447 1445 1442 1438 1435 1433 1430 1427 1425 1423 1421 1419 1417 1416 1415 1413 1412 1411 1412 1412 1413 1414 1416 1418 1420 1422 1425
1466 1465 1463 1462 1461 1460 1458 1457 1455 1454 1452 1450 1448 1447 1444 1442 1440 1438 1435 1432 1429 1426 1424 1421 1419 1417 1415 1414 1412 1410 1409 1408 1407 1406 1406 1407 1407 1408 1410 1412 1414 1416 1419
1462 1460 1458 1457 1455 1454 1452 1450 1449 1447 1446 1444 1442 1440 1438 1436 1434 1431 1429 1426 1423 1421 1418 1415 1413 1411 1409 1408 1406 1405 1403 1402 1401 1401 1401 1401 1402 1403 1404 1406 1408 1410 1413
1457 1455 1453 1451 1449 1448 1446 1444 1442 1440 1439 1436 1435 1433 1431 1429 1427 1425 1423 1420 1417 1415 1412 1410 1408 1406 1404 1402 1401 1399 1397 1396 1396 1395 1395 1395 1396 1397 1399 1400 1403 1405 1408
1452 1450 1448 1446 1444 1442 1440 1438 1436 1434 1432 1430 1429 1427 1425 1423 1421 1419 1417 1414 1412 1409 1408 1405 1403 1401 1399 1397 1395 1394 1392 1391 1390 1390 1390 1390 1391 1392 1394 1396 1398 1401 1403
1446 1444 1442 1439 1437 1435 1433 1431 1429 1427 1425 1424 1422 1421 1419 1417 1415 1413 1411 1408 1406 1404 1402 1400 1398 1396 1393 1391 1390 1388 1387 1386 1385 1385 1385 1386 1386 1388 1389 1391 1394 1396 1399
1441 1438 1435 1432 1430 1428 1426 1424 1422 1421 1419 1417 1416 1414 1413 1412 1410 1408 1406 1404 1401 1399 1397 1395 1393 1391 1388 1387 1385 1384 1383 1382 1381 1381 1381 1382 1383 1384 1385 1387 1389 1392 1395
1435 1432 1429 1426 1424 1421 1419 1417 1415 1414 1412 1411 1409 1408 1406 1405 1404 1402 1401 1399 1397 1395 1393 1391 1388 1386 1384 1383 1381 1380 1379 1378 1377 1377 1378 1378 1379 1380 1381 1383 1385 1388 1391
1430 1427 1423 1420 1417 1414 1412 1410 1408 1407 1405 1404 1402 1402 1401 1400 1398 1397 1396 1394 1392 1390 1388 1386 1384 1382 1380 1379 1378 1376 1375 1374 1374 1374 1374 1375 1376 1377 1378 1380 1382 1384 1387
1425 1421 1418 1414 1411 1408 1406 1403 1401 1400 1398 1397 1396 1395 1395 1394 1393 1392 1391 1390 1388 1386 1384 1382 1380 1378 1377 1375 1374 1372 1372 1371 1371 1371 1371 1372 1372 1374 1375 1377 1379 1380 1383
1420 1415 1412 1408 1405 1402 1399 1397 1395 1393 1392 1391 1390 1390 1390 1389 1389 1388 1387 1385 1384 1382 1380 1379 1377 1375 1373 1372 1370 1369 1368 1367 1367 1367 1368 1368 1369 1371 1372 1374 1375 1377 1379
1414 1410 1406 1402 1399 1396 1394 1391 1389 1388 1386 1386 1386 1385 1385 1385 1385 1384 1383 1382 1380 1379 1377 1375 1373 1371 1370 1368 1366 1365 1364 1364 1363 1364 1364 1365 1366 1367 1369 1370 1372 1374 1376